GPS BIIF-8 (40294 NORAD) Tracking and Keplerian Element Data

This shows tracking and keplerian element data for the satellite.

Feedback or suggestion? Click here.




ElementValue
Catalog40294
NameGPS BIIF-8
Epoch Orbit3013
Epoch Day345.24776355
Epoch Year2018
RAAN138.9323
Inclination55.1202
Eccentricity0.0017304
Argument of Perigee34.6685
Mean Anonmoly325.4227
Mean Motion2.00569425
Decay Rate3.9E-07
L11 40294U 14068A 18345.24776355 .00000039 00000-0 00000+0 0 9999
L22 40294 55.1202 138.9323 0017304 34.6685 325.4227 2.00569425 30137

Live tracking and technical data element details for GPS BIIF-8 (NORAD 40294). GPS BIIF-8 can be tracked NOW for your location showing map with azimuth and elevation plus other details from your city location.

Track the satellite on the map from your city or location and see movement details for azimuth, elevation, latitude, longitude, range, height, and movement on the map or in text.







IsCatalogInMostPopularTable: catalog: 40294, numindb: 91
Update: records affected: 1



GetName: 40294 GPS BIIF-8

Hit Count: updated at: Thu, 13 Dec 2018 04:33:11 GMT